Weather History for Sisseton, SD

Change the Weather History Date:

Wednesday, August 28, 2013

  Actual Average (KETH) Record (KETH)
Temperature  
Mean Temperature 75 °F -  
Max Temperature 85 °F 82 °F 101 °F (1973)
Min Temperature 65 °F 56 °F 37 °F (1965)
Cooling Degree Days 10    
Month to date cooling degree days 147  
Year to date cooling degree days 495  
Since 1 June cooling degree days 470  
Growing Degree Days 25 (Base 50)    
Moisture  
Dew Point 72 °F    
Average Humidity 87    
Maximum Humidity 100    
Minimum Humidity 74    
Precipitation  
Precipitation 0.06 in - - ()
Month to date precipitation 0.70  
Year to date precipitation 18.42  
Sea Level Pressure  
Sea Level Pressure 29.90 in    
Wind  
Wind Speed 3 mph (SSE)    
Max Wind Speed 12 mph    
Max Gust Speed 16 mph    
Averages and records for this station are not official NWS values.
T = Trace of Precipitation, MM = Missing Value Source: NWS Daily Summary

Daily Weather History Graph

Daily Weather History Graph

Search for Another Location

Airport:

Trip Planner

Search our weather history database for the weather conditions in past years. The results will help you decide how hot, cold, wet, or windy it might be!

Date:

Astronomy

Aug. 28, 2013 Rise Set
Actual Time 6:44 AM CDT 8:12 PM CDT
Civil Twilight 6:13 AM CDT 8:43 PM CDT
Nautical Twilight 5:35 AM CDT 9:21 PM CDT
Astronomical Twilight 4:55 AM CDT 10:01 PM CDT
Moon No Moon Rise 3:00 PM CDT (8/28)
Length of Visible Light 14h 30m
Length of Day
13h 28m
Waning Gibbous, 47% of the Moon is Illuminated
Aug 28
Waning Gibbous
Sep 5
New
Sep 12
First Quarter
Sep 19
Full
Sep 26
Last Quarter

Hourly Weather History & Observations

Time (CDT) Temp. Heat Index Dew Point Humidity Pressure Visibility Wind Dir Wind Speed Gust Speed Precip Events Conditions
12:56 AM 69.1 °F - 66.9 °F 93% 29.88 in - Calm Calm - N/A   Unknown
1:56 AM 69.1 °F - 66.9 °F 93% 29.86 in - Calm Calm - N/A   Unknown
2:56 AM 69.1 °F - 66.9 °F 93% 29.88 in - Calm Calm - N/A   Unknown
3:56 AM 70.0 °F - 68.0 °F 93% 29.87 in - Calm Calm - N/A   Unknown
4:56 AM 68.0 °F - 66.0 °F 93% 29.87 in - Calm Calm - N/A   Unknown
5:56 AM 66.0 °F - 64.0 °F 93% 29.88 in - Calm Calm - N/A   Unknown
6:56 AM 66.9 °F - 66.0 °F 97% 29.89 in - Calm Calm - N/A   Unknown
7:56 AM 70.0 °F - 68.0 °F 93% 29.92 in - Calm Calm - N/A   Unknown
8:56 AM 71.1 °F - 69.1 °F 93% 29.95 in - Calm Calm - N/A   Unknown
9:56 AM 72.0 °F - 71.1 °F 97% 29.92 in - SE 9.2 mph - 0.03 in   Unknown
10:56 AM 73.0 °F - 72.0 °F 96% 29.92 in - SE 3.5 mph - 0.03 in   Unknown
11:56 AM 77.0 °F - 73.9 °F 90% 29.93 in - Variable 3.5 mph - N/A   Unknown
12:56 PM 78.1 °F - 75.0 °F 90% 29.92 in - SE 4.6 mph - N/A   Unknown
1:56 PM 81.0 °F 86.7 °F 75.0 °F 82% 29.91 in - Variable 5.8 mph - N/A   Unknown
2:56 PM 84.0 °F 91.9 °F 75.0 °F 74% 29.91 in - South 6.9 mph - N/A   Unknown
3:56 PM 82.9 °F 90.2 °F 75.0 °F 77% 29.91 in - South 10.4 mph - N/A   Unknown
4:56 PM 84.0 °F 91.9 °F 75.0 °F 74% 29.91 in - SSE 8.1 mph - N/A   Unknown
5:56 PM 84.0 °F 92.6 °F 75.9 °F 76% 29.90 in - SSE 6.9 mph - N/A   Unknown
6:56 PM 82.9 °F 90.8 °F 75.9 °F 79% 29.89 in - SSE 4.6 mph - N/A   Unknown
7:56 PM 81.0 °F 87.3 °F 75.9 °F 85% 29.88 in - SSE 3.5 mph - N/A   Unknown
8:56 PM 77.0 °F - 75.0 °F 94% 29.90 in - SE 3.5 mph - N/A   Unknown
9:56 PM 75.9 °F - 73.9 °F 94% 29.90 in - Calm Calm - N/A   Unknown
10:56 PM 73.9 °F - 73.0 °F 97% 29.90 in - SSE 3.5 mph - N/A   Unknown
11:56 PM 73.9 °F - 73.0 °F 97% 29.89 in - Calm Calm - N/A   Unknown